TimeNZDT,TemperatureF,Dew PointF,Humidity,Sea Level PressureIn,VisibilityMPH,Wind Direction,Wind SpeedMPH,Gust SpeedMPH,PrecipitationIn,Events,Conditions,WindDirDegrees,DateUTC
12:00 AM,39.2,37.4,93,29.83,6.2,WNW,6.9,-,N/A,,Scattered Clouds,290,2012-10-22 11:00:00
1:00 AM,37.4,35.6,93,29.83,6.2,WNW,4.6,-,N/A,,Partly Cloudy,290,2012-10-22 12:00:00
2:00 AM,35.6,33.8,93,29.83,6.2,NW,2.3,-,N/A,,Partly Cloudy,310,2012-10-22 13:00:00
3:00 AM,33.8,33.8,100,29.83,-9999.0,WNW,3.5,-,N/A,,Clear,300,2012-10-22 14:00:00
4:00 AM,33.8,33.8,100,29.83,-9999.0,NNW,1.2,-,N/A,,Clear,340,2012-10-22 15:00:00
5:00 AM,30.2,30.2,100,29.83,-9999.0,West,1.2,-,N/A,,Clear,280,2012-10-22 16:00:00
6:00 AM,32.0,30.2,93,29.83,-9999.0,East,1.2,-,N/A,,Clear,90,2012-10-22 17:00:00
7:00 AM,30.2,30.2,100,29.83,-9999.0,South,1.2,-,N/A,,Clear,190,2012-10-22 18:00:00
8:00 AM,35.6,35.6,100,29.86,-9999.0,NNW,1.2,-,N/A,,Clear,340,2012-10-22 19:00:00
9:00 AM,46.4,42.8,87,29.89,-9999.0,WSW,3.5,-,N/A,,Clear,240,2012-10-22 20:00:00
10:00 AM,50.0,35.6,58,29.89,-9999.0,WSW,11.5,-,N/A,,Clear,240,2012-10-22 21:00:00
11:00 AM,51.8,33.8,50,29.92,-9999.0,SSW,15.0,-,N/A,,Clear,210,2012-10-22 22:00:00
12:00 PM,51.8,37.4,58,29.92,6.2,SSW,18.4,-,N/A,,Mostly Cloudy,200,2012-10-22 23:00:00
1:00 PM,55.4,39.2,54,29.92,6.2,South,13.8,-,N/A,,Scattered Clouds,190,2012-10-23 00:00:00
2:00 PM,55.4,39.2,54,29.95,6.2,SSW,15.0,-,N/A,,Scattered Clouds,210,2012-10-23 01:00:00
3:00 PM,53.6,35.6,51,29.95,6.2,South,16.1,-,N/A,,Scattered Clouds,190,2012-10-23 02:00:00
4:00 PM,53.6,39.2,58,29.95,6.2,South,17.3,-,N/A,,Partly Cloudy,180,2012-10-23 03:00:00
5:00 PM,53.6,41.0,62,29.98,6.2,South,11.5,-,N/A,,Partly Cloudy,180,2012-10-23 04:00:00
6:00 PM,51.8,39.2,62,29.98,6.2,South,11.5,-,N/A,,Partly Cloudy,180,2012-10-23 05:00:00
7:00 PM,50.0,39.2,66,30.01,6.2,South,10.4,-,N/A,,Partly Cloudy,170,2012-10-23 06:00:00
8:00 PM,46.4,39.2,76,30.01,6.2,South,6.9,-,N/A,,Partly Cloudy,180,2012-10-23 07:00:00
9:00 PM,42.8,37.4,81,30.06,6.2,SSW,4.6,-,N/A,,Partly Cloudy,210,2012-10-23 08:00:00
10:00 PM,39.2,35.6,87,30.06,6.2,NW,3.5,-,N/A,,Partly Cloudy,310,2012-10-23 09:00:00
11:00 PM,37.4,35.6,93,30.06,6.2,NW,3.5,-,N/A,,Partly Cloudy,310,2012-10-23 10:00:00